Location: Unspecified
(48.8656°N, 0.0000°E)
Time: 11:36:37
(UTC+00:00)

Vanguard 1 Rocket - Pass Details

Date: 20 June 2019
Orbit: 651 x 4225 km, 34.3° (Epoch: 20 July)

Event Time Altitude Azimuth Distance (km) Brightness Sun altitude
Rises 19:57:01 0° 252° (WSW) 6,163 12.2 0.5°
Reaches altitude 10° 20:02:23 10° 244° (WSW) 4,501 11.3 -0.2°
Maximum altitude 20:11:17 29° 191° (S) 2,232 9.2 -1.4°
Drops below altitude 10° 20:16:47 10° 132° (SE) 2,706 9.2 -2.1°
Enters shadow 20:18:35 - 122° (ESE) 3,213 9.5 -2.3°
Sets 20:19:10 0° 120° (ESE) 3,401 - -2.4°
